Location: Mactaquac Provincial Park
(45.9573°N, 66.8897°W)
Time: 22:55:38
(UTC-03:00)

CENTAUR R/B - Visible Passes

Search period start: 21 August 2014 00:00
Search period end: 31 August 2014 00:00
Orbit: 898 x 1291 km, 63.5° (Epoch: 05 August)

Date Brightness Start Highest point End Pass type
(mag) Time Alt. Az. Time Alt. Az. Time Alt. Az.
21 Aug 5.4 21:47:18 10° WNW 21:51:16 15° WSW 21:55:18 10° SW visible
22 Aug 5.1 20:57:41 10° WNW 21:03:39 25° WSW 21:09:48 10° SSW visible
24 Aug 5.6 21:14:17 10° W 21:17:22 13° WSW 21:20:31 10° SW visible
27 Aug 6.0 20:41:46 10° W 20:43:28 11° WSW 20:45:12 10° WSW visible
